Weather Roundup
Issued by NWS

Home | Current Version | Previous Version | Graphics & Text | Print | Product List | Glossary Off
Versions: 1 2 3 4 5 6 7 8 9 10 11 12 13 14 15 16 17 18 19 20 21 22 23 24 25 26 27 28 29 30 31 32 33 34 35 36 37 38 39 40 41 42 43 44 45 46 47 48 49 50

000
NZUS93 KARX 250410
HRRWXR

CURRENT HOURLY OBSERVATIONS ACROSS
MUCH OF THE UPPER MISSISSIPPI VALLEY
NATIONAL WEATHER SERVICE LA CROSSE WI
1100 PM CDT SAT JUN 24 2017


...SOUTHEAST MINNESOTA...


CITY           SKY/WX    TMP DP  RH WIND       PRES   REMARKS
ROCHESTER      CLEAR     52  46  80 W8        30.10R
ROCHESTER/MAYO FAIR      55  45  68 W9        30.09R
WINONA         CLEAR     54  50  87 N3        30.07R
AUSTIN         CLEAR     54  45  71 W5        30.10S
ALBERT LEA     CLEAR     54  45  71 W3        30.12R
DODGE CENTER   CLEAR     54  43  66 W5        30.10R
PRESTON        CLEAR     51  44  76 W8        30.09S
OWATONNA       PTCLDY    54  45  71 W3        30.11R
FARIBAULT      MOCLDY    55  46  71 W5        30.10R
$$

...ELSEWHERE IN MINNESOTA...


CITY           SKY/WX    TMP DP  RH WIND       PRES   REMARKS
MINNEAPOLIS    PTCLDY    57  46  66 W7        30.07S
INTNL FALLS    RAIN      53  52  96 N8        30.03R
DULUTH         MOCLDY    53  49  86 W9        29.99S
RED WING       CLEAR     55  45  67 NW3       30.06R
REDWOOD FALLS  PTCLDY    57  43  59 NW13      30.14R
MANKATO        CLEAR     56  44  64 W7        30.12R
WORTHINGTON    CLEAR     50  42  74 NW8       30.19R
FAIRMONT       CLEAR     54  43  66 NW9       30.15R
$$

...SOUTHWEST WISCONSIN...


CITY           SKY/WX    TMP DP  RH WIND       PRES   REMARKS
LA CROSSE      CLEAR     58  50  75 CALM      30.06R
PRAIRIE DU CHI CLEAR     53  51  94 CALM      30.08S
BOSCOBEL       CLEAR     54  52  93 S3        30.08S
LONE ROCK      CLEAR     53  49  86 CALM      30.07R
PLATTEVILLE    CLEAR     53  53 100 W6        30.09S
FORT MC COY    CLEAR     48  48  99 CALM      30.06S
CAMP DOUGLAS   CLEAR     47  46  97 W6        30.04R
MAUSTON-NEW LI CLEAR     51  48  92 W3        30.03S
VIROQUA        FAIR      50  49  95 SW8       30.07S
WIS DELLS      CLEAR     50  46  84 W6        30.05S
$$

...ELSEWHERE IN WISCONSIN...


CITY           SKY/WX    TMP DP  RH WIND       PRES   REMARKS
MILWAUKEE      PTCLDY    57  50  77 SW10      30.02R
MADISON        PTCLDY    54  51  90 VRB5      30.04S
GREEN BAY      CLOUDY    57  48  72 W14       29.96R
EAU CLAIRE     CLEAR     54  47  77 W7        30.03R
BLACK RVR FLS  FAIR      45  45 100 CALM      30.04R FOG
MEDFORD        CLOUDY    51  46  84 W3        30.00S
WAUSAU         CLOUDY    53  47  79 W9        29.98F
WIS RAPIDS     MOCLDY    53  45  74 W6        30.03R
MARSHFIELD     MOCLDY    51  46  83 W6        30.01S
RICE LAKE      PTCLDY    54  47  75 W5        30.04S
$$

...NORTHEAST IOWA...


CITY           SKY/WX    TMP DP  RH WIND       PRES   REMARKS
WATERLOO       CLEAR     56  43  61 W6        30.11R
DUBUQUE        CLEAR     52  50  93 CALM      30.10R
DECORAH        CLEAR     54  48  82 W3        30.09R
MASON CITY     CLEAR     52  41  66 NW6       30.14R
CHARLES CITY   CLEAR     54  46  76 NW3       30.12R
OELWEIN        CLEAR     55  50  82 NW7       30.12R
$$

...ELSEWHERE IN IOWA...


CITY           SKY/WX    TMP DP  RH WIND       PRES   REMARKS
DES MOINES     CLEAR     65  43  44 N6        30.14R
IOWA CITY      CLEAR     63  46  54 NW6       30.12R
FORT DODGE     CLEAR     55  39  54 CALM      30.16R
MARSHALLTOWN   CLEAR     54  47  77 W3        30.13R
CEDAR RAPIDS   CLEAR     58  49  72 NW5       30.11R
$$

...NORTHERN ILLINOIS...


CITY           SKY/WX    TMP DP  RH WIND       PRES   REMARKS
CHICAGO-OHARE  LGT RAIN  63  47  55 W10       30.06R
CHICAGO-MIDWAY PTCLDY    64  46  52 W3        30.05F
MOLINE         PTCLDY    64  48  56 N7        30.10R
ROCKFORD       MOCLDY    56  53  90 W3        30.09R
PEORIA         CLEAR     61  48  62 SW7       30.09S
$$

NOTE: "FAIR" INDICATES FEW OR NO CLOUDS BELOW 12,000 FEET WITH NO
SIGNIFICANT WEATHER AND/OR OBSTRUCTIONS TO VISIBILITY. WIND
SPEEDS ARE IN MILES-PER-HOUR.




USA.gov is the U.S. government's official web portal to all federal, state and local government web resources and services.